Weather in Karterados

Greece     36°24′37″N   25°26′26″E
temp.,
°C
wind,
m/s
gust,
m/s
humid.,
%
clouds,
%
prec.,
mm/h
press.,
hPa
HPBL,
m
19 january, wed
wed1923:00+11n1213520 0.0 10261528
02:00+11n1213504 0.0 10261941
05:00+10nne111060100 0.0 10261933
08:00+10n14145481 0.1 10292061
11:00+9nne12135027 0.0 10311973
14:00+9nne10104916 0.0 10311889
17:00+9n89497 0.0 10301777
20:00+9n89543 0.0 10301544
20 january, thu
thu2023:00+9n66530 0.0 10301424
02:00+10nw55541 0.0 10301335
05:00+10wnw455610 0.0 10281257
08:00+10w55595 0.0 10281045
11:00+12wsw566281 0.0 10271219
14:00+13sw7968100 0.0 10251325
17:00+14wsw12137283 0.8 10231332
20:00+15sw13146659 1.4 10241786
21 january, fri
fri2123:00+14sw121361100 0.2 10231920
02:00+14wsw111268100 0.5 10221326
05:00+15wsw1111655 0.4 10211478
08:00+14ssw10106519 0.6 10211400
11:00+14ssw101274100 0.3 10221256
14:00+14sw101172100 1.3 10191105
17:00+14sw91178100 2.5 10181054
20:00+15sw121271100 3.2 10181253
22 january, sat
sat2223:00+15wsw12137289 0.8 10181328
02:00+15wsw111271100 2.1 10161268
05:00+15wsw11126499 0.9 10151599
08:00+14wsw12147214 2.1 10151253
11:00+15wsw111371100 2.4 10141323
14:00+15wsw131470100 4.1 10111374
17:00+15wsw121368100 1.4 10101469
20:00+13nw3474100 1.9 1010719
23 january, sun
sun2323:00+12w3572100 2.1 1008810
02:00+13sw121373100 5.9 10041575
05:00+10nnw121184100 3.6 10041002
08:00+9nnw10982100 5.0 10041160
11:00+9n141475100 1.3 10051414
14:00+8nnw171875100 1.5 10061834
17:00+7nnw202179100 0.9 10081843
20:00+7nnw202185100 1.9 10111745